This is the latest recevied weather packets stored in our database for station/object VK6JI-11. If no packets are shown the sender has not sent any weather packets the latest 10 day(s).
| Time | Temp. | Humidity | Pressure | Rain* | Wind** | Luminosity | Snow |
|---|---|---|---|---|---|---|---|
| 1778117944 | 18.33° C | 62% | 1030.8 hPa | 0 mm | - | 445 W/m² | - |
| 1778117824 | 18.33° C | 62% | 1030.8 hPa | 0 mm | - | 441 W/m² | - |
| 1778117705 | 18.33° C | 62% | 1030.7 hPa | 0 mm | - | 436 W/m² | - |
| 1778117584 | 18.33° C | 62% | 1030.8 hPa | 0 mm | - | 431 W/m² | - |
| 1778117462 | 17.78° C | 63% | 1030.8 hPa | 0 mm | - | 426 W/m² | - |
| 1778117343 | 17.78° C | 63% | 1030.8 hPa | 0 mm | - | 420 W/m² | - |
| 1778117222 | 17.78° C | 65% | 1030.8 hPa | 0 mm | - | 415 W/m² | - |
| 1778117104 | 17.22° C | 66% | 1030.7 hPa | 0 mm | - | 410 W/m² | - |
| 1778116982 | 17.22° C | 66% | 1030.9 hPa | 0 mm | - | 404 W/m² | - |
| 1778116863 | 17.22° C | 67% | 1030.8 hPa | 0 mm | - | 399 W/m² | - |
| 1778116743 | 16.67° C | 67% | 1030.8 hPa | 0 mm | - | 392 W/m² | - |
| 1778116623 | 16.67° C | 68% | 1030.8 hPa | 0 mm | - | 387 W/m² | - |
| 1778116502 | 16.11° C | 68% | 1030.9 hPa | 0 mm | - | 382 W/m² | - |
| 1778116382 | 16.11° C | 69% | 1030.8 hPa | 0 mm | - | 376 W/m² | - |
| 1778116262 | 15.56° C | 70% | 1030.8 hPa | 0 mm | - | 371 W/m² | - |
| 1778116140 | 15.56° C | 71% | 1030.8 hPa | 0 mm | - | 364 W/m² | - |
| 1778116019 | 15° C | 72% | 1030.9 hPa | 0 mm | - | 359 W/m² | - |
| 1778115897 | 15° C | 72% | 1030.9 hPa | 0 mm | - | 353 W/m² | - |
| 1778115777 | 15° C | 72% | 1030.8 hPa | 0 mm | - | 346 W/m² | - |
| 1778115657 | 15° C | 72% | 1030.8 hPa | 0 mm | - | 341 W/m² | - |
| 1778115536 | 14.44° C | 73% | 1030.8 hPa | 0 mm | - | 294 W/m² | - |
| 1778115416 | 14.44° C | 73% | 1030.8 hPa | 0 mm | - | 202 W/m² | - |
| 1778115295 | 14.44° C | 73% | 1030.8 hPa | 0 mm | - | 274 W/m² | - |
| 1778115175 | 13.89° C | 74% | 1030.8 hPa | 0 mm | - | 225 W/m² | - |
| 1778115054 | 13.89° C | 74% | 1030.8 hPa | 0 mm | - | 121 W/m² | - |
* Rain latest hour (hover to see other rain measurements)
** Current wind speed in m/s (hover to see current wind gust speed)